Showing default

FLOCK 4G 22, 62645

Orbit data source: Space-Track

FLOCK 4G 22, 62645 is a payload satellite owned by Planet (US) in SSO that was launched on Tue, 14 Jan 2025 UTC via an FALCON 9 launch vehicle from the Air Force Western Test Range (AFWTR). Payload-class satellites include a variety of spacecraft equipped with specific instruments for various scientific and technological missions. These include communications satellites like Starlink; space stations such as the ISS; scientific satellites like the Hubble; Earth observation satellites from companies like Planet Labs, Umbra, and HawkEye 360; GPS; miniature CubeSats for education and research; and military/defense satellites.

Loading next visibility...
Identifier
62645, 2025-009AN
Orbit
SSO
Country
Flag of USUS
Related business
Manufacturer
Planet
Mission
Operational Commercial Imaging
Bus & Motor
CUBESAT 3U, Unknown motor
Mass
5.7 kg wet, 5.7 kg dry
Launch date (UTC)
2025-01-14 (7 months ago)
Launch vehicle
FALCON 9
Launch site
Air Force Western Test Range (AFWTR)
Object type
Payload
Rocket body
Debris
Shape & HBR
Box + 2 Pan, 0.1 m
Radar Cross Section
0.035 m², Medium (>0.1 m² and < 1m²)

Expand to show TLE details & history
Last TLE update: 20 hours ago

TLE from 20 hours ago
0 FLOCK 4G 22
1 62645U 25009AN  25241.20405003  .00011817  00000-0  51818-3 0  9991
2 62645  97.4271 320.6956 0001882 218.1140 141.9963 15.22130955 34397
Epoch: 2025-08-29T04:53Z
TLE epoch observation values (Epoch: 2025-08-29T04:53:49.922Z)
Latitude
-0.00007°
Longitude
-90.41846°
Altitude
503.527 km
Speed
7.612 km/s
True Right ascension
21h 22m 46s
True Declination
0° 00' 00"
Sunlit
Object was in full shadow at epoch
Visualization orbit readout
Latitude
Unknown
Longitude
Unknown
Altitude
Unknown
Speed
Unknown
Apparent Right ascension
Unknown
Apparent Declination
Unknown
Sunlit
N/A
Visualization observer readout
Local Sidereal Time
16:56:21
Azimuth
Unknown
Elevation
Unknown
Doppler factor
Unknown
Orbital elements
Apogee altitude
497.672 km
Perigee altitude
495.084 km
Semi-major axis
6,874.515 km
Eccentricity
0.00019
Inclination
97.4271°
RAAN
320.6956°
Arg. of periapsis
218.114°
True anomaly
142.00958°
Mean anomaly
141.9963°
Eccentric anomaly
142.00294°
Mean motion
3.80785 °/min
Orbital period
94.54 mins
BSTAR
0.00051818
Loading maneuver chart data...
Computing Atmospheric mass density...
Loading historical data...
Loading historical data...
Loading historical data...
Loading historical data...
Loading historical data...
Loading historical data...
Loading historical data...

Documentation

Showing up to 5 results
|